[[{"header":{"parameterUnit":"m.s-1","parameterCategory":1,"la1":30.2991,"la2":30.254,"lo1":-89.0895,"lo2":-89.0444,"dy":0.0017,"dx":0.0017,"nx":28,"ny":28,"refTime":"2024-05-05T03:00:00:Z","depth":0,"parameterNumber":2,"parameterNumberName":"U-component_of_WINDS"},"data":[0,0,0,0,0,0,0,0,0,0,0,0,0,0,0,0,0,0,0,0,0,0,0,0,0,0,0,0,0,0,0,0,0,0,0,0,0,0,0,0,0,0,0,0,0,0,0,0,0,0,0,0,0,0,0,0,0,0,-1.1935,-1.1935,0,-1.193,-1.193,-1.193,-1.1894,-1.1893,-1.1892,-1.1891,-1.1886,-1.1887,-1.1887,0,0,0,0,0,0,0,0,0,0,0,0,0,-1.1913,-1.1914,-1.1935,-1.1935,-1.1935,-1.193,-1.193,-1.193,-1.1894,-1.1893,-1.1892,-1.1891,-1.1886,-1.1887,-1.1888,0,0,0,0,0,0,0,0,0,0,0,0,0,-1.1917,-1.1914,-1.1935,-1.1916,-1.1915,-1.193,-1.193,-1.193,-1.1894,-1.1893,-1.1891,-1.189,-1.1886,-1.1887,-1.1888,-1.1921,0,0,-1.1891,-1.1891,0,0,0,0,0,0,0,0,-1.1917,-1.1918,-1.1919,-1.1918,-1.1916,-1.1911,-1.1921,-1.1927,-1.1894,-1.1902,-1.1891,-1.1889,-1.1896,-1.1896,-1.1898,-1.1921,-1.1921,-1.1891,-1.1892,-1.1892,-1.1892,0,0,0,0,0,0,0,-1.1917,-1.1918,-1.1933,-1.1919,-1.1917,-1.1908,-1.1907,-1.1922,-1.1906,-1.1901,-1.1898,-1.1898,-1.1894,-1.1897,-1.1897,-1.1921,-1.1891,-1.1892,-1.1893,-1.1893,-1.1971,-1.1973,0,0,0,0,0,0,-1.1919,-1.1918,-1.1933,-1.1933,-1.1913,-1.191,-1.1909,-1.1914,-1.1906,-1.1904,-1.1899,-1.1897,-1.1896,-1.1896,-1.1897,-1.1936,-1.1892,-1.1893,-1.1894,-1.197,-1.1971,-1.1973,0,0,0,0,0,0,-1.1919,-1.1921,-1.1934,-1.1925,-1.1926,-1.1912,-1.1918,-1.1915,-1.1917,-1.1905,-1.1902,-1.1905,-1.1895,-1.1896,-1.1915,-1.1935,-1.1894,-1.1895,-1.1968,-1.197,-1.1972,-1.2014,0,0,0,0,0,0,-1.1918,-1.1921,-1.1934,-1.1925,-1.1926,-1.1952,-1.1919,-1.1916,-1.1919,-1.1915,-1.1909,-1.1907,-1.1894,-1.1914,-1.1917,-1.1936,-1.1895,-1.1966,-1.1969,-1.1972,-1.201,-1.2017,-1.2023,0,0,0,0,0,-1.1918,-1.1945,-1.1934,-1.1936,-1.1942,-1.1953,-1.1954,-1.1938,-1.1921,-1.1933,-1.1925,-1.1907,-1.1933,-1.1916,-1.1919,-1.1939,-1.1965,-1.1968,-1.1971,-1.2008,-1.2016,-1.2022,0,0,0,0,0,0,-1.1956,-1.1944,-1.1932,-1.1958,-1.1957,-1.1947,-1.1963,-1.1947,-1.1951,-1.1948,-1.1928,-1.1927,-1.195,-1.1946,-1.1928,-1.1971,-1.1946,-1.1949,-1.1972,-1.198,-1.1986,-1.1986,-1.1896,0,0,0,0,0,-1.1968,-1.1978,-1.1967,-1.1991,-1.1991,-1.1977,-1.1982,-1.1969,-1.1968,-1.1967,-1.1961,-1.196,-1.1968,-1.1974,-1.198,-1.201,-1.2008,-1.2025,-1.2031,-1.2036,-1.2039,-1.2055,-1.2062,-1.1984,-1.1984,-1.1984,0,0,-1.1992,-1.1986,-1.1994,-1.1999,-1.1997,-1.2008,-1.1977,-1.199,-1.1998,-1.1969,-1.1988,-1.1983,-1.1981,-1.2006,-1.2017,-1.2004,-1.2061,-1.204,-1.2044,-1.2045,-1.2059,-1.2066,-1.2073,-1.1986,-1.1985,-1.1985,0,0,-1.2041,-1.2038,-1.2058,-1.2056,-1.2054,-1.2044,-1.2049,-1.2042,-1.2037,-1.2056,-1.2034,-1.2044,-1.2058,-1.2057,-1.2058,-1.2108,-1.2091,-1.211,-1.2142,-1.2157,-1.2163,-1.2169,-1.2186,-1.2193,-1.2114,-1.2114,-1.2114,0,-1.2071,-1.2087,-1.207,-1.2085,-1.2087,-1.2061,-1.2081,-1.2081,-1.208,-1.2083,-1.2068,-1.2085,-1.2082,-1.2106,-1.2118,-1.2121,-1.2125,-1.2111,-1.2164,-1.2169,-1.2174,-1.2191,-1.2197,-1.2117,-1.2116,-1.2116,-1.2116,0,-1.2125,-1.2136,-1.2152,-1.2153,-1.2157,-1.2174,-1.2159,-1.2166,-1.2154,-1.2146,-1.2164,-1.216,-1.2165,-1.217,-1.2158,-1.2193,-1.2185,-1.2167,-1.2142,-1.2184,-1.2199,-1.2206,-1.212,-1.2119,-1.2118,-1.2118,0,0,-1.2198,-1.2189,-1.2195,-1.2195,-1.219,-1.2198,-1.2215,-1.222,-1.2226,-1.2226,-1.2239,-1.2252,-1.2236,-1.2238,-1.2225,-1.2239,-1.2278,-1.222,-1.2219,-1.2231,-1.2316,-1.233,-1.2337,-1.2267,-1.2268,-1.2269,-1.2317,0,-1.2246,-1.2272,-1.2257,-1.2286,-1.2297,-1.2272,-1.2286,-1.2285,-1.2278,-1.2286,-1.2278,-1.2287,-1.2265,-1.2266,-1.2278,-1.2271,-1.2295,-1.2267,-1.2279,-1.228,-1.2281,-1.2345,-1.2359,-1.2404,-1.2322,-1.2323,-1.2324,0,-1.2305,-1.2308,-1.2338,-1.2331,-1.2335,-1.2348,-1.2351,-1.2359,-1.2357,-1.2351,-1.2353,-1.2338,-1.2353,-1.2328,-1.2349,-1.233,-1.2334,-1.2331,-1.2332,-1.2333,-1.2305,-1.2348,-1.2418,-1.2425,-1.2333,-1.2333,-1.2332,0,-1.2356,-1.2367,-1.2387,-1.2388,-1.238,-1.239,-1.2387,-1.2384,-1.2388,-1.2391,-1.2393,-1.2398,-1.2401,-1.2405,-1.2391,-1.2374,-1.2414,-1.2387,-1.2409,-1.241,-1.2419,-1.2419,-1.2492,-1.2422,-1.2422,-1.2421,-1.2421,0,-1.241,-1.243,-1.241,-1.2422,-1.2443,-1.2425,-1.2446,-1.2441,-1.2438,-1.2449,-1.2428,-1.2439,-1.242,-1.2429,-1.2418,-1.2437,-1.2438,-1.2434,-1.2431,-1.2436,-1.2437,-1.2438,-1.2435,-1.2423,-1.2423,-1.2422,-1.2422,0,-1.2471,-1.2458,-1.2478,-1.2469,-1.2467,-1.2483,-1.2476,-1.2487,-1.2478,-1.2492,-1.2494,-1.2481,-1.249,-1.2477,-1.2485,-1.2477,-1.2504,-1.2496,-1.2505,-1.2502,-1.2525,-1.2524,-1.2602,-1.2611,-1.2535,-1.2536,-1.2537,0,-1.2507,-1.2521,-1.2514,-1.2519,-1.2518,-1.2527,-1.2531,-1.2514,-1.2519,-1.2518,-1.2529,-1.2537,-1.2542,-1.2557,-1.2549,-1.2554,-1.2547,-1.2574,-1.2547,-1.2552,-1.2547,-1.2547,-1.2548,-1.2579,-1.258,-1.2581,-1.2581,0,-1.2572,-1.2565,-1.2571,-1.2576,-1.2581,-1.2583,-1.2585,-1.259,-1.2573,-1.2579,-1.2588,-1.2592,-1.26,-1.2608,-1.2611,-1.2609,-1.2592,-1.259,-1.2595,-1.2601,-1.2605,-1.2603,-1.2519,-1.2588,-1.2587,-1.2587,-1.2587,-1.2586,-1.2621,-1.2632,-1.2629,-1.2637,-1.2636,-1.2638,-1.2648,-1.2641,-1.2648,-1.2653,-1.2642,-1.2654,-1.2652,-1.2655,-1.2654,-1.2663,-1.2651,-1.2659,-1.2661,-1.2663,-1.2667,-1.2604,-1.2663,-1.2663,-1.2663,-1.2663,-1.2663,0,-1.2685,-1.2682,-1.2689,-1.2691,-1.2698,-1.2682,-1.2682,-1.2688,-1.2699,-1.2698,-1.2703,-1.2714,-1.2721,-1.2713,-1.2719,-1.2728,-1.272,-1.273,-1.2729,-1.2729,-1.2677,-1.2672,-1.2736,-1.2736,-1.2736,-1.2736,-1.2736,-1.2736,-1.2719,-1.2738,-1.2731,-1.2749,-1.2746,-1.2757,-1.2758,-1.276,-1.2759,-1.2772,-1.2778,-1.2772,-1.2768,-1.2774,-1.278,-1.2777,-1.2781,-1.2793,-1.2788,-1.274,-1.2732,-1.2726,-1.2721,-1.2794,-1.2794,-1.2839,-1.2839,-1.2839]},{"header":{"parameterUnit":"m.s-1","parameterCategory":1,"la1":30.2991,"la2":30.254,"lo1":-89.0895,"lo2":-89.0444,"dy":0.0017,"dx":0.0017,"nx":28,"ny":28,"refTime":"2024-05-05T03:00:00:Z","depth":0,"parameterNumber":3,"parameterNumberName":"V-component_of_WINDS"},"data":[0,0,0,0,0,0,0,0,0,0,0,0,0,0,0,0,0,0,0,0,0,0,0,0,0,0,0,0,0,0,0,0,0,0,0,0,0,0,0,0,0,0,0,0,0,0,0,0,0,0,0,0,0,0,0,0,0,0,0.1113,0.1112,0,0.1095,0.1095,0.1094,0.1099,0.11,0.11,0.11,0.108,0.1079,0.1078,0,0,0,0,0,0,0,0,0,0,0,0,0,0.115,0.1149,0.1113,0.1112,0.1112,0.1095,0.1095,0.1094,0.1099,0.11,0.11,0.1101,0.108,0.1079,0.1078,0,0,0,0,0,0,0,0,0,0,0,0,0,0.1133,0.1149,0.1113,0.1113,0.1112,0.1095,0.1095,0.1094,0.1099,0.11,0.11,0.1101,0.1081,0.1079,0.1078,0.1058,0,0,0.1074,0.1073,0,0,0,0,0,0,0,0,0.1134,0.1132,0.1113,0.1113,0.1112,0.11,0.11,0.1082,0.1099,0.1104,0.1101,0.1101,0.1086,0.1084,0.108,0.1058,0.1057,0.1074,0.1073,0.1072,0.1072,0,0,0,0,0,0,0,0.1135,0.1132,0.1105,0.1113,0.1112,0.1113,0.1111,0.1097,0.1092,0.1104,0.1104,0.1102,0.1086,0.1081,0.1079,0.1056,0.1074,0.1073,0.1072,0.1071,0.1019,0.1018,0,0,0,0,0,0,0.1137,0.1133,0.1106,0.1105,0.1125,0.1112,0.111,0.1103,0.1092,0.1091,0.1102,0.1102,0.1083,0.1081,0.1078,0.1056,0.1072,0.1071,0.107,0.1019,0.1019,0.1018,0,0,0,0,0,0,0.1137,0.1134,0.1107,0.1119,0.1116,0.1111,0.1103,0.1103,0.1098,0.1091,0.109,0.1097,0.1083,0.108,0.1064,0.1055,0.107,0.1069,0.102,0.1019,0.1018,0.101,0,0,0,0,0,0,0.1139,0.1134,0.1127,0.1119,0.1115,0.1093,0.1103,0.1102,0.1096,0.1096,0.1086,0.1085,0.1083,0.1066,0.1063,0.1054,0.1068,0.1021,0.102,0.1019,0.1011,0.1009,0.1007,0,0,0,0,0,0.114,0.1125,0.1127,0.1123,0.1106,0.1092,0.109,0.1089,0.1095,0.1087,0.1083,0.1086,0.1057,0.1064,0.106,0.1051,0.1021,0.102,0.1019,0.1012,0.1009,0.1007,0,0,0,0,0,0,0.113,0.1123,0.1126,0.1108,0.1101,0.1093,0.1084,0.1086,0.1076,0.1077,0.1076,0.1074,0.1057,0.1052,0.1061,0.1032,0.104,0.1038,0.1036,0.1033,0.1031,0.1033,0.1067,0,0,0,0,0,0.1127,0.1117,0.1111,0.1095,0.1092,0.1088,0.1082,0.1082,0.1075,0.1071,0.1066,0.1058,0.1047,0.104,0.103,0.101,0.1009,0.1002,0.1,0.0999,0.0997,0.0987,0.0985,0.1014,0.1014,0.1014,0,0,0.1118,0.1113,0.1106,0.1093,0.1088,0.1077,0.1086,0.1074,0.1066,0.1069,0.1054,0.105,0.1041,0.1023,0.1015,0.1019,0.0989,0.0997,0.0996,0.0995,0.0986,0.0983,0.0981,0.1013,0.1013,0.1013,0,0,0.1097,0.1092,0.1079,0.1074,0.1066,0.1064,0.1061,0.1054,0.1051,0.1036,0.1039,0.1029,0.1011,0.1005,0.0999,0.0978,0.098,0.0974,0.0964,0.0955,0.0952,0.095,0.0943,0.0941,0.0972,0.0972,0.0972,0,0.1086,0.1071,0.1072,0.106,0.1055,0.1059,0.1046,0.104,0.1029,0.1025,0.103,0.1007,0.1002,0.0983,0.0978,0.0973,0.097,0.0975,0.0953,0.0951,0.0949,0.0942,0.0939,0.0972,0.0972,0.0972,0.0972,0,0.1059,0.1049,0.1039,0.103,0.1023,0.1011,0.101,0.1003,0.1004,0.1002,0.0987,0.098,0.0969,0.0965,0.0965,0.0947,0.0949,0.0953,0.0961,0.0945,0.0939,0.0936,0.0971,0.0971,0.0971,0.0971,0,0,0.1031,0.1023,0.102,0.1016,0.1009,0.1,0.0988,0.0979,0.0973,0.0966,0.0956,0.0941,0.0945,0.0939,0.0939,0.0931,0.0915,0.0936,0.0936,0.0933,0.0896,0.0893,0.089,0.0917,0.0916,0.0916,0.0897,0,0.1009,0.0989,0.099,0.0971,0.0962,0.0967,0.0957,0.0951,0.0949,0.094,0.0938,0.0927,0.0933,0.093,0.0922,0.0919,0.0908,0.092,0.0908,0.0907,0.091,0.0886,0.0883,0.0865,0.0894,0.0894,0.0893,0,0.0981,0.0974,0.0955,0.0951,0.0947,0.0937,0.0929,0.0921,0.0915,0.0914,0.0908,0.091,0.0898,0.0907,0.089,0.0899,0.0894,0.0892,0.0891,0.089,0.0899,0.0884,0.0859,0.0856,0.0889,0.0889,0.089,0,0.0963,0.0949,0.0936,0.0932,0.0926,0.092,0.0917,0.0912,0.0906,0.0899,0.0896,0.0887,0.0882,0.0875,0.0874,0.0881,0.0859,0.0867,0.0857,0.0858,0.0852,0.0853,0.0826,0.0849,0.0849,0.0849,0.0849,0,0.0939,0.0927,0.0928,0.092,0.0907,0.0908,0.0895,0.0893,0.0888,0.088,0.0883,0.0875,0.0874,0.0866,0.0865,0.0852,0.085,0.0849,0.0849,0.0849,0.0849,0.0845,0.0846,0.0848,0.0848,0.0849,0.0849,0,0.0916,0.0916,0.0902,0.0898,0.0897,0.0888,0.0884,0.0877,0.0876,0.0865,0.0863,0.0861,0.0851,0.085,0.0838,0.0838,0.0823,0.0824,0.0825,0.0825,0.0816,0.0817,0.0786,0.0783,0.0808,0.0808,0.0808,0,0.09,0.0892,0.0887,0.0883,0.088,0.0872,0.0867,0.0868,0.0862,0.0856,0.0849,0.084,0.0833,0.0818,0.0815,0.0807,0.0808,0.0798,0.0807,0.0807,0.0808,0.0809,0.0808,0.0796,0.0796,0.0796,0.0795,0,0.0873,0.0874,0.0867,0.0861,0.0855,0.085,0.0845,0.084,0.0841,0.0835,0.0826,0.0821,0.081,0.0801,0.0794,0.079,0.0793,0.0793,0.079,0.079,0.0791,0.0791,0.0821,0.0793,0.0794,0.0794,0.0794,0.0794,0.0854,0.0847,0.0843,0.0836,0.0833,0.0828,0.0821,0.082,0.0813,0.0805,0.0806,0.0796,0.0792,0.0782,0.0778,0.077,0.0774,0.077,0.0769,0.0768,0.0767,0.0793,0.0769,0.0769,0.0769,0.0769,0.0769,0,0.0827,0.0826,0.0819,0.0813,0.0807,0.0811,0.0806,0.0801,0.0793,0.0789,0.0782,0.0773,0.0765,0.0762,0.0754,0.0749,0.075,0.0747,0.0747,0.0746,0.0764,0.0768,0.0746,0.0746,0.0746,0.0746,0.0746,0.0746,0.0813,0.0802,0.0802,0.079,0.0788,0.0779,0.0776,0.0772,0.0769,0.0759,0.0752,0.0751,0.0748,0.074,0.0733,0.0733,0.073,0.0726,0.0726,0.0743,0.0745,0.0747,0.075,0.0725,0.0725,0.0709,0.0708,0.0708]}]]